Time,TemperatureF,DewpointF,PressureIn,WindDirection,WindDirectionDegrees,WindSpeedMPH,WindSpeedGustMPH,Humidity,HourlyPrecipIn,Conditions,Clouds,dailyrainin,SoftwareType,DateUTC
2013-01-12 00:13:00,61.1,57.0,30.09,SSW,208,2.0,14.0,85,0.00,,,0.00,weatherlink.com 1.10,2013-01-12 05:13:00,
2013-01-12 00:28:00,61.1,56.0,30.09,SW,217,0.0,8.0,84,0.00,,,0.00,weatherlink.com 1.10,2013-01-12 05:28:00,
2013-01-12 00:43:00,59.3,55.0,30.09,SW,222,0.0,1.0,86,0.00,,,0.00,weatherlink.com 1.10,2013-01-12 05:43:00,
2013-01-12 00:58:00,57.8,55.0,30.09,SW,222,0.0,1.0,89,0.00,,,0.00,weatherlink.com 1.10,2013-01-12 05:58:00,
2013-01-12 01:13:00,57.6,55.0,30.09,SW,222,0.0,1.0,90,0.00,,,0.00,weatherlink.com 1.10,2013-01-12 06:13:00,
2013-01-12 01:28:00,58.0,55.0,30.09,SW,223,0.0,0.0,90,0.00,,,0.00,weatherlink.com 1.10,2013-01-12 06:28:00,
2013-01-12 01:43:00,58.2,55.0,30.09,NE,46,0.0,1.0,90,0.00,,,0.00,weatherlink.com 1.10,2013-01-12 06:43:00,
2013-01-12 01:58:00,58.0,55.0,30.09,NE,37,1.0,1.0,90,0.00,,,0.00,weatherlink.com 1.10,2013-01-12 06:58:00,
2013-01-12 02:13:00,58.0,55.0,30.09,NE,36,2.0,2.0,90,0.00,,,0.00,weatherlink.com 1.10,2013-01-12 07:13:00,
2013-01-12 02:28:00,58.2,55.0,30.09,NE,39,1.0,2.0,89,0.00,,,0.00,weatherlink.com 1.10,2013-01-12 07:28:00,
2013-01-12 02:43:00,58.2,55.0,30.10,NNE,29,0.0,1.0,90,0.00,,,0.00,weatherlink.com 1.10,2013-01-12 07:43:00,
2013-01-12 02:58:00,58.7,56.0,30.09,NNE,31,0.0,1.0,90,0.00,,,0.00,weatherlink.com 1.10,2013-01-12 07:58:00,
2013-01-12 03:13:00,58.6,56.0,30.09,NNE,33,1.0,1.0,90,0.00,,,0.00,weatherlink.com 1.10,2013-01-12 08:13:00,
2013-01-12 03:28:00,58.8,56.0,30.09,NNE,30,1.0,1.0,90,0.00,,,0.00,weatherlink.com 1.10,2013-01-12 08:28:00,
2013-01-12 03:43:00,58.8,57.0,30.09,NNE,32,1.0,1.0,92,0.00,,,0.00,weatherlink.com 1.10,2013-01-12 08:43:00,
2013-01-12 03:58:00,58.3,56.0,30.09,NNE,29,0.0,1.0,92,0.00,,,0.00,weatherlink.com 1.10,2013-01-12 08:58:00,
2013-01-12 04:13:00,58.5,57.0,30.09,NNE,31,1.0,1.0,93,0.00,,,0.00,weatherlink.com 1.10,2013-01-12 09:13:00,
2013-01-12 04:28:00,58.4,56.0,30.09,NNE,32,0.0,0.0,93,0.00,,,0.00,weatherlink.com 1.10,2013-01-12 09:28:00,
2013-01-12 04:43:00,58.1,56.0,30.09,NNE,30,1.0,1.0,94,0.00,,,0.00,weatherlink.com 1.10,2013-01-12 09:43:00,
2013-01-12 04:58:00,57.8,56.0,30.08,East,88,1.0,1.0,94,0.00,,,0.00,weatherlink.com 1.10,2013-01-12 09:58:00,
2013-01-12 05:13:00,57.4,55.0,30.09,SW,224,0.0,2.0,93,0.00,,,0.00,weatherlink.com 1.10,2013-01-12 10:13:00,
2013-01-12 05:28:00,57.5,56.0,30.09,SW,223,0.0,0.0,96,0.00,,,0.00,weatherlink.com 1.10,2013-01-12 10:28:00,
2013-01-12 05:43:00,57.8,57.0,30.09,SW,224,0.0,0.0,97,0.00,,,0.00,weatherlink.com 1.10,2013-01-12 10:43:00,
2013-01-12 05:58:00,57.6,57.0,30.09,SW,224,1.0,1.0,96,0.00,,,0.00,weatherlink.com 1.10,2013-01-12 10:58:00,
2013-01-12 06:13:00,57.8,57.0,30.10,SW,224,0.0,2.0,97,0.00,,,0.00,weatherlink.com 1.10,2013-01-12 11:13:00,
2013-01-12 06:28:00,58.0,58.0,30.10,SW,224,0.0,1.0,98,0.00,,,0.00,weatherlink.com 1.10,2013-01-12 11:28:00,
2013-01-12 06:43:00,56.3,56.0,30.11,NE,42,2.0,2.0,97,0.00,,,0.00,weatherlink.com 1.10,2013-01-12 11:43:00,
2013-01-12 06:58:00,56.6,56.0,30.11,NE,43,0.0,1.0,98,0.00,,,0.00,weatherlink.com 1.10,2013-01-12 11:58:00,
2013-01-12 07:13:00,55.3,55.0,30.12,South,170,0.0,0.0,97,0.00,,,0.00,weatherlink.com 1.10,2013-01-12 12:13:00,
2013-01-12 07:28:00,55.3,55.0,30.12,NE,37,2.0,2.0,98,0.00,,,0.00,weatherlink.com 1.10,2013-01-12 12:28:00,
2013-01-12 07:43:00,55.7,55.0,30.13,NE,36,0.0,1.0,98,0.00,,,0.00,weatherlink.com 1.10,2013-01-12 12:43:00,
2013-01-12 07:58:00,55.6,55.0,30.13,NE,36,0.0,0.0,98,0.00,,,0.00,weatherlink.com 1.10,2013-01-12 12:58:00,
2013-01-12 08:13:00,55.8,55.0,30.14,SSE,152,1.0,1.0,98,0.00,,,0.00,weatherlink.com 1.10,2013-01-12 13:13:00,
2013-01-12 08:28:00,55.5,55.0,30.15,SSE,152,0.0,0.0,98,0.00,,,0.00,weatherlink.com 1.10,2013-01-12 13:28:00,
2013-01-12 08:43:00,56.7,56.0,30.15,ENE,64,0.0,2.0,98,0.00,,,0.00,weatherlink.com 1.10,2013-01-12 13:43:00,
2013-01-12 08:58:00,56.3,56.0,30.15,NE,46,1.0,1.0,98,0.00,,,0.00,weatherlink.com 1.10,2013-01-12 13:58:00,
2013-01-12 09:13:00,56.6,56.0,30.15,SE,136,1.0,2.0,98,0.00,,,0.00,weatherlink.com 1.10,2013-01-12 14:13:00,
2013-01-12 09:28:00,56.5,56.0,30.15,SSE,168,1.0,1.0,98,0.00,,,0.00,weatherlink.com 1.10,2013-01-12 14:28:00,
2013-01-12 09:43:00,58.0,58.0,30.15,SSE,167,0.0,1.0,99,0.00,,,0.00,weatherlink.com 1.10,2013-01-12 14:43:00,
2013-01-12 09:59:00,61.1,61.0,30.15,SSE,167,0.0,0.0,99,0.00,,,0.00,weatherlink.com 1.10,2013-01-12 14:59:00,
2013-01-12 10:14:00,62.1,62.0,30.15,SSE,160,1.0,1.0,99,0.00,,,0.00,weatherlink.com 1.10,2013-01-12 15:14:00,
2013-01-12 10:29:00,62.7,62.0,30.15,SSW,207,0.0,1.0,98,0.00,,,0.00,weatherlink.com 1.10,2013-01-12 15:29:00,
2013-01-12 10:46:00,64.1,62.0,30.15,SW,219,1.0,1.0,91,0.00,,,0.00,weatherlink.com 1.10,2013-01-12 15:46:00,
2013-01-12 10:59:00,66.0,61.0,30.14,WSW,238,0.0,3.0,85,0.00,,,0.00,weatherlink.com 1.10,2013-01-12 15:59:00,
2013-01-12 11:14:00,67.6,62.0,30.14,SW,233,0.0,3.0,81,0.00,,,0.00,weatherlink.com 1.10,2013-01-12 16:14:00,
2013-01-12 11:29:00,68.4,61.0,30.13,SW,218,3.0,5.0,78,0.00,,,0.00,weatherlink.com 1.10,2013-01-12 16:29:00,
2013-01-12 11:44:00,68.6,61.0,30.12,SW,218,1.0,6.0,77,0.00,,,0.00,weatherlink.com 1.10,2013-01-12 16:44:00,
2013-01-12 11:59:00,68.1,60.0,30.12,SSW,210,2.0,4.0,76,0.00,,,0.00,weatherlink.com 1.10,2013-01-12 16:59:00,
2013-01-12 12:14:00,68.1,60.0,30.11,SSW,210,5.0,8.0,75,0.00,,,0.00,weatherlink.com 1.10,2013-01-12 17:14:00,
2013-01-12 12:29:00,68.5,60.0,30.11,South,180,1.0,6.0,74,0.00,,,0.00,weatherlink.com 1.10,2013-01-12 17:29:00,
2013-01-12 12:44:00,68.8,59.0,30.10,SW,233,1.0,3.0,72,0.00,,,0.00,weatherlink.com 1.10,2013-01-12 17:44:00,
2013-01-12 12:59:00,68.9,60.0,30.10,South,170,6.0,10.0,72,0.00,,,0.00,weatherlink.com 1.10,2013-01-12 17:59:00,
2013-01-12 13:14:00,69.1,60.0,30.09,SW,221,2.0,7.0,72,0.00,,,0.00,weatherlink.com 1.10,2013-01-12 18:14:00,
2013-01-12 13:29:00,69.2,59.0,30.09,WSW,238,0.0,6.0,71,0.00,,,0.00,weatherlink.com 1.10,2013-01-12 18:29:00,
2013-01-12 13:44:00,69.3,60.0,30.09,SSW,197,3.0,8.0,72,0.00,,,0.00,weatherlink.com 1.10,2013-01-12 18:44:00,
2013-01-12 13:59:00,69.8,60.0,30.09,WSW,252,1.0,6.0,71,0.00,,,0.00,weatherlink.com 1.10,2013-01-12 18:59:00,
2013-01-12 14:14:00,69.3,60.0,30.08,South,183,3.0,5.0,73,0.00,,,0.00,weatherlink.com 1.10,2013-01-12 19:14:00,
2013-01-12 14:29:00,68.9,60.0,30.08,South,188,2.0,6.0,74,0.00,,,0.00,weatherlink.com 1.10,2013-01-12 19:29:00,
2013-01-12 14:44:00,68.7,61.0,30.08,SW,217,4.0,8.0,75,0.00,,,0.00,weatherlink.com 1.10,2013-01-12 19:44:00,
2013-01-12 14:59:00,68.6,61.0,30.08,South,180,2.0,8.0,76,0.00,,,0.00,weatherlink.com 1.10,2013-01-12 19:59:00,
2013-01-12 15:14:00,68.5,61.0,30.07,SSW,202,5.0,8.0,76,0.00,,,0.00,weatherlink.com 1.10,2013-01-12 20:14:00,
2013-01-12 15:29:00,68.4,61.0,30.06,SSW,212,1.0,5.0,76,0.00,,,0.00,weatherlink.com 1.10,2013-01-12 20:29:00,
2013-01-12 15:44:00,68.4,60.0,30.06,SSW,208,0.0,6.0,75,0.00,,,0.00,weatherlink.com 1.10,2013-01-12 20:44:00,
2013-01-12 15:59:00,68.1,60.0,30.06,SSE,158,1.0,3.0,76,0.00,,,0.00,weatherlink.com 1.10,2013-01-12 20:59:00,
2013-01-12 16:14:00,68.5,61.0,30.06,SSW,197,1.0,3.0,76,0.00,,,0.00,weatherlink.com 1.10,2013-01-12 21:14:00,
2013-01-12 16:30:00,68.6,60.0,30.06,SSE,155,4.0,5.0,75,0.00,,,0.00,weatherlink.com 1.10,2013-01-12 21:30:00,
2013-01-12 16:46:00,68.1,60.0,30.06,SW,217,1.0,8.0,75,0.00,,,0.00,weatherlink.com 1.10,2013-01-12 21:46:00,
2013-01-12 17:00:00,67.4,60.0,30.06,SSW,198,3.0,8.0,77,0.00,,,0.00,weatherlink.com 1.10,2013-01-12 22:00:00,
2013-01-12 17:15:00,67.2,60.0,30.05,South,186,3.0,5.0,77,0.00,,,0.00,weatherlink.com 1.10,2013-01-12 22:15:00,
2013-01-12 17:33:00,66.7,60.0,30.05,SSW,203,2.0,7.0,78,0.00,,,0.00,weatherlink.com 1.10,2013-01-12 22:33:00,
2013-01-12 17:46:00,65.9,59.0,30.04,SSE,152,1.0,3.0,79,0.00,,,0.00,weatherlink.com 1.10,2013-01-12 22:46:00,
2013-01-12 18:01:00,65.0,59.0,30.04,SE,140,1.0,4.0,80,0.00,,,0.00,weatherlink.com 1.10,2013-01-12 23:01:00,
2013-01-12 18:16:00,64.1,59.0,30.05,South,169,0.0,0.0,82,0.00,,,0.00,weatherlink.com 1.10,2013-01-12 23:16:00,
2013-01-12 18:31:00,64.1,59.0,30.04,SSE,149,0.0,4.0,83,0.00,,,0.00,weatherlink.com 1.10,2013-01-12 23:31:00,
2013-01-12 18:46:00,63.6,59.0,30.04,SSW,208,0.0,2.0,85,0.00,,,0.00,weatherlink.com 1.10,2013-01-12 23:46:00,
2013-01-12 19:01:00,62.3,58.0,30.04,SSW,208,0.0,0.0,87,0.00,,,0.00,weatherlink.com 1.10,2013-01-13 00:01:00,
2013-01-12 19:16:00,61.0,58.0,30.04,SSW,208,0.0,0.0,89,0.00,,,0.00,weatherlink.com 1.10,2013-01-13 00:16:00,
2013-01-12 19:31:00,60.6,58.0,30.04,SSW,208,0.0,1.0,91,0.00,,,0.00,weatherlink.com 1.10,2013-01-13 00:31:00,
2013-01-12 19:46:00,62.3,59.0,30.04,SSE,148,1.0,5.0,90,0.00,,,0.00,weatherlink.com 1.10,2013-01-13 00:46:00,
2013-01-12 20:01:00,62.4,59.0,30.03,South,181,0.0,2.0,88,0.00,,,0.00,weatherlink.com 1.10,2013-01-13 01:01:00,
2013-01-12 20:16:00,61.1,58.0,30.03,South,181,0.0,0.0,90,0.00,,,0.00,weatherlink.com 1.10,2013-01-13 01:16:00,
2013-01-12 20:31:00,60.4,58.0,30.03,South,181,0.0,0.0,92,0.00,,,0.00,weatherlink.com 1.10,2013-01-13 01:31:00,
2013-01-12 20:46:00,60.2,58.0,30.02,South,181,0.0,0.0,93,0.00,,,0.00,weatherlink.com 1.10,2013-01-13 01:46:00,
2013-01-12 21:01:00,59.2,57.0,30.02,South,181,0.0,0.0,93,0.00,,,0.00,weatherlink.com 1.10,2013-01-13 02:01:00,
2013-01-12 21:16:00,58.2,57.0,30.02,South,181,0.0,1.0,94,0.00,,,0.00,weatherlink.com 1.10,2013-01-13 02:16:00,
2013-01-12 21:31:00,58.0,56.0,30.02,ESE,111,0.0,0.0,94,0.00,,,0.00,weatherlink.com 1.10,2013-01-13 02:31:00,
2013-01-12 21:46:00,57.8,57.0,30.01,ENE,70,0.0,1.0,96,0.00,,,0.00,weatherlink.com 1.10,2013-01-13 02:46:00,
2013-01-12 22:01:00,57.2,56.0,30.01,ENE,70,0.0,1.0,96,0.00,,,0.00,weatherlink.com 1.10,2013-01-13 03:01:00,
2013-01-12 22:16:00,57.6,57.0,30.00,NE,41,1.0,2.0,97,0.00,,,0.00,weatherlink.com 1.10,2013-01-13 03:16:00,
2013-01-12 22:31:00,57.8,57.0,30.00,SSE,152,1.0,1.0,97,0.00,,,0.00,weatherlink.com 1.10,2013-01-13 03:31:00,
2013-01-12 22:45:00,56.9,56.0,30.00,SSE,152,0.0,1.0,96,0.00,,,0.00,weatherlink.com 1.10,2013-01-13 03:45:00,
2013-01-12 23:01:00,56.8,56.0,30.00,SSE,152,0.0,0.0,97,0.00,,,0.00,weatherlink.com 1.10,2013-01-13 04:01:00,
2013-01-12 23:16:00,57.3,57.0,30.00,SSE,152,0.0,1.0,98,0.00,,,0.00,weatherlink.com 1.10,2013-01-13 04:16:00,
2013-01-12 23:31:00,58.0,58.0,30.00,NE,40,1.0,1.0,98,0.00,,,0.00,weatherlink.com 1.10,2013-01-13 04:31:00,